GW0615 Weather Reports


time (UTC)temp
F
wind
direction
speed
knots
gust
knots
rain 1hr
in
rain 24hr
in
rain mn
in
humidity
%
barometer
mb
20260506014807 58 338 0.0 0.0 0.00 0.00 0.00 94 1011.8
20260506014256 59 338 0.0 0.0 0.00 0.00 0.00 94 1012.0
20260506013747 59 338 0.0 0.0 0.00 0.00 0.00 94 1012.0
20260506013236 60 338 0.0 6.1 0.00 0.00 0.00 94 1011.9
20260506012726 60 338 0.0 6.1 0.00 0.00 0.00 93 1011.8
20260506012215 61 338 2.6 5.2 0.00 0.00 0.00 93 1011.9
20260506011705 62 338 2.6 5.2 0.00 0.00 0.00 92 1012.0
20260506011156 62 338 2.6 3.5 0.00 0.00 0.00 93 1012.0
20260506010645 62 338 2.6 7.8 0.00 0.00 0.00 93 1012.4
20260506010135 62 338 2.6 7.8 0.00 0.00 0.00 93 1012.1
20260506005627 61 338 2.6 3.5 0.00 0.00 0.00 93 1012.4
20260506005115 62 338 2.6 5.2 0.00 0.00 0.00 93 1012.4
20260506004607 62 338 2.6 6.1 0.00 0.00 0.00 93 1012.3
20260506004055 62 338 3.5 6.1 0.00 0.00 0.00 93 1012.3
20260506003545 62 338 3.5 6.1 0.00 0.00 0.00 93 1012.1
20260506003045 62 338 2.6 5.2 0.00 0.00 0.00 93 1011.8
20260506002525 62 338 0.0 5.2 0.00 0.00 0.00 93 1012.4
20260506002014 62 338 3.5 6.1 0.00 0.00 0.00 93 1012.1
20260506001505 61 338 0.0 6.1 0.00 0.00 0.00 93 1012.0
20260506000954 61 338 3.5 6.1 0.00 0.00 0.00 93 1012.0
20260506000445 61 338 3.5 7.0 0.00 0.00 0.00 93 1011.9
20260505235424 61 338 3.5 6.1 0.00 0.00 0.00 94 1011.7
20260505234915 61 338 3.5 5.2 0.00 0.00 0.00 94 1011.7
20260505234405 60 338 0.0 3.5 0.00 0.00 0.00 94 1011.5
20260505233854 60 338 0.0 3.5 0.00 0.00 0.00 94 1011.8
20260505233344 60 338 2.6 3.5 0.00 0.00 0.00 94 1011.7
20260505232323 59 338 0.0 7.0 0.00 0.00 0.00 94 1011.6
20260505231812 59 338 0.0 7.0 0.00 0.00 0.00 94 1011.6
20260505231302 59 338 5.2 7.0 0.00 0.00 0.00 94 1011.6
20260505230753 59 338 5.2 7.0 0.00 0.00 0.00 94 1011.5
20260505225734 60 338 0.0 1.7 0.00 0.00 0.00 93 1011.1
20260505225223 60 338 0.0 1.7 0.00 0.00 0.00 93 1011.1
20260505223652 61 338 0.0 1.7 0.00 0.00 0.00 91 1011.2
20260505223142 61 338 0.0 1.7 0.00 0.00 0.00 90 1011.4
20260505222631 61 338 0.0 0.0 0.00 0.00 0.00 90 1011.6
20260505222122 61 338 0.0 0.0 0.00 0.00 0.00 90 1011.2
20260505221103 60 338 0.0 0.0 0.00 0.00 0.00 88 1011.1
20260505220552 60 338 0.0 0.0 0.00 0.00 0.00 87 1011.2
20260505220042 60 338 0.0 0.0 0.00 0.00 0.00 86 1011.1
20260505215531 62 338 0.0 0.0 0.00 0.00 0.00 85 1011.2
20260505214001 64 338 0.0 1.7 0.00 0.00 0.00 81 1011.1
20260505213451 65 338 1.7 1.7 0.00 0.00 0.00 80 1011.0
20260505212941 65 338 0.9 1.7 0.00 0.00 0.00 78 1011.4
20260505210352 69 338 0.9 3.5 0.00 0.00 0.00 70 1011.1
20260505205842 69 338 0.0 0.0 0.00 0.00 0.00 69 1011.0
20260505205330 69 338 0.0 0.0 0.00 0.00 0.00 68 1011.1
20260505204820 70 338 0.0 0.0 0.00 0.00 0.00 67 1011.2
20260505204310 70 338 0.0 3.5 0.00 0.00 0.00 68 1011.1
20260505203249 70 338 2.6 9.6 0.00 0.00 0.00 67 1010.9
20260505202740 70 338 1.7 9.6 0.00 0.00 0.00 67 1011.0
20260505202229 70 338 0.0 6.1 0.00 0.00 0.00 67 1011.1
20260505201719 71 338 2.6 9.6 0.00 0.00 0.00 66 1011.1
20260505201209 71 338 0.0 9.6 0.00 0.00 0.00 66 1011.0
20260505200658 71 338 5.2 7.0 0.00 0.00 0.00 65 1011.0
20260505200148 71 338 4.3 7.0 0.00 0.00 0.00 65 1010.9
20260505195129 71 338 5.2 9.6 0.00 0.00 0.00 65 1011.1
20260505194619 71 338 6.1 9.6 0.00 0.00 0.00 65 1011.1
20260505193048 71 338 5.2 9.6 0.00 0.00 0.00 65 1010.9
20260505192538 72 338 7.0 12.2 0.00 0.00 0.00 63 1011.4
20260505192027 72 338 9.6 12.2 0.00 0.00 0.00 63 1010.9
20260505191518 72 315 6.1 9.6 0.00 0.00 0.00 62 1011.1
20260505191008 71 315 0.0 7.0 0.00 0.00 0.00 63 1011.0
20260505190458 71 315 3.5 7.8 0.00 0.00 0.00 62 1011.2
20260505185949 71 315 1.7 7.8 0.00 0.00 0.00 63 1011.2
20260505185438 73 315 6.1 7.8 0.00 0.00 0.00 60 1011.2
20260505184928 73 315 2.6 9.6 0.00 0.00 0.00 61 1011.0
20260505184418 73 315 7.0 9.6 0.00 0.00 0.00 61 1011.0
20260505183907 72 315 6.1 9.6 0.00 0.00 0.00 62 1011.1
20260505183357 72 315 6.1 9.6 0.00 0.00 0.00 62 1011.0
20260505182847 73 315 3.5 9.6 0.00 0.00 0.00 62 1011.2
20260505182336 73 315 5.2 9.6 0.00 0.00 0.00 60 1011.1
20260505181826 74 315 7.0 9.6 0.00 0.00 0.00 59 1011.1
20260505181316 72 315 2.6 7.8 0.00 0.00 0.00 61 1011.1
20260505180256 72 315 0.0 7.0 0.00 0.00 0.00 62 1011.2
20260505175746 72 315 3.5 9.6 0.00 0.00 0.00 62 1011.2
20260505174726 71 315 7.0 13.0 0.00 0.00 0.00 64 1011.4
20260505174216 72 315 6.1 11.3 0.00 0.00 0.00 62 1011.2
20260505173705 73 315 5.2 11.3 0.00 0.00 0.00 61 1011.6
20260505173157 73 315 2.6 9.6 0.00 0.00 0.00 59 1011.5
20260505172646 72 315 5.2 9.6 0.00 0.00 0.00 62 1011.6
20260505171115 72 315 5.2 11.3 0.00 0.00 0.00 63 1011.8
20260505170605 73 315 6.1 11.3 0.00 0.00 0.00 63 1011.8
20260505165545 70 315 8.7 12.2 0.00 0.00 0.00 65 1011.7
20260505165034 71 315 4.3 12.2 0.00 0.00 0.00 65 1011.6
20260505164525 73 315 7.8 11.3 0.00 0.00 0.00 62 1011.8
20260505164014 73 315 6.1 9.6 0.00 0.00 0.00 64 1011.8
20260505163504 72 315 3.5 9.6 0.00 0.00 0.00 64 1012.1
20260505162954 72 315 7.0 13.0 0.00 0.00 0.00 63 1012.0
20260505162444 72 315 5.2 13.0 0.00 0.00 0.00 63 1012.4
20260505161934 72 315 3.5 7.8 0.00 0.00 0.00 63 1012.1
20260505161423 73 315 0.0 9.6 0.00 0.00 0.00 60 1012.2
20260505160914 71 315 1.7 9.6 0.00 0.00 0.00 63 1012.2
20260505153303 72 293 3.5 7.8 0.00 0.00 0.00 62 1012.5
20260505152753 71 293 2.6 7.8 0.00 0.00 0.00 64 1012.5
20260505152243 71 293 7.0 7.8 0.00 0.00 0.00 63 1012.4
20260505151733 71 293 1.7 6.1 0.00 0.00 0.00 63 1012.4
20260505150712 71 293 3.5 7.0 0.00 0.00 0.00 64 1012.3
20260505150202 70 293 3.5 7.0 0.00 0.00 0.00 63 1012.4
20260505140511 69 293 0.0 3.5 0.00 0.00 0.00 64 1012.1
20260505130309 64 293 0.0 0.0 0.00 0.00 0.00 74 1012.4
20260505124229 62 293 0.0 0.0 0.00 0.00 0.00 79 1012.1
20260505123719 61 293 0.0 0.0 0.00 0.00 0.00 81 1012.0
20260505123208 60 293 0.0 0.0 0.00 0.00 0.00 82 1011.7
20260505122150 59 293 0.0 0.0 0.00 0.00 0.00 84 1011.7
20260505121639 58 293 0.0 0.0 0.00 0.00 0.00 86 1011.9
20260505121128 57 293 0.0 0.0 0.00 0.00 0.00 87 1011.8
20260505120108 55 293 0.0 1.7 0.00 0.00 0.00 90 1011.8
20260505115558 54 293 0.0 1.7 0.00 0.00 0.00 91 1012.0
20260505115048 53 293 0.0 0.0 0.00 0.00 0.00 93 1011.9
20260505114538 52 293 0.0 0.0 0.00 0.00 0.00 95 1011.8
20260505114028 51 293 0.0 0.0 0.00 0.00 0.00 95 1011.9
20260505113518 49 293 0.0 0.0 0.00 0.00 0.00 96 1012.0
20260505113008 48 293 0.0 0.0 0.00 0.00 0.00 96 1012.1
20260505112457 46 293 0.0 0.0 0.00 0.00 0.00 96 1011.7
20260505111947 45 293 0.0 0.0 0.00 0.00 0.00 96 1011.8
20260505110927 44 293 0.0 0.0 0.00 0.00 0.00 96 1011.7
20260505110417 42 293 0.0 0.0 0.00 0.00 0.00 96 1011.9
20260505101746 43 293 0.0 0.0 0.00 0.00 0.00 95 1011.2
20260505100728 44 293 0.0 0.0 0.00 0.00 0.00 94 1010.9
20260505100216 44 293 0.0 0.0 0.00 0.00 0.00 94 1011.1
20260505095707 45 293 0.0 0.0 0.00 0.00 0.00 93 1011.0
20260505095152 47 293 0.0 0.0 0.00 0.00 0.00 94 1010.9
20260505094135 47 293 0.0 0.0 0.00 0.00 0.00 93 1010.8
20260505093626 48 293 0.0 0.0 0.00 0.00 0.00 94 1010.7
20260505093114 48 293 0.0 0.0 0.00 0.00 0.00 95 1010.3
20260505092605 47 293 0.0 0.0 0.00 0.00 0.00 95 1010.3
20260505092054 47 293 0.0 0.0 0.00 0.00 0.00 95 1010.3
20260505091545 47 293 0.0 0.0 0.00 0.00 0.00 95 1009.8
20260505091035 46 293 0.0 0.0 0.00 0.00 0.00 95 1010.4
20260505090525 46 293 0.0 0.0 0.00 0.00 0.00 95 1010.4
20260505090014 47 293 0.0 0.0 0.00 0.00 0.00 95 1010.1
20260505085504 47 293 0.0 0.0 0.00 0.00 0.00 95 1009.8
20260505084954 46 293 0.0 0.0 0.00 0.00 0.00 95 1010.0
20260505084444 46 293 0.0 0.0 0.00 0.00 0.00 95 1010.0
20260505083425 46 293 0.0 0.0 0.00 0.00 0.00 95 1010.0
20260505082914 45 293 0.0 0.0 0.00 0.00 0.00 95 1010.2
20260505082404 45 293 0.0 0.0 0.00 0.00 0.00 95 1010.1
20260505081854 46 293 0.0 0.0 0.00 0.00 0.00 95 1009.8
20260505081343 45 293 0.0 0.0 0.00 0.00 0.00 95 1009.7
20260505080833 46 293 0.0 0.0 0.00 0.00 0.00 94 1009.8
20260505075812 46 293 0.0 0.0 0.00 0.00 0.00 93 1009.6
20260505075304 47 293 0.0 1.7 0.00 0.00 0.00 92 1009.7
20260505074753 49 293 0.0 1.7 0.00 0.00 0.00 92 1009.8
20260505074243 49 293 0.0 0.0 0.00 0.00 0.00 91 1010.0
20260505073732 50 293 0.0 0.0 0.00 0.00 0.00 91 1009.7
20260505073222 50 293 0.0 0.0 0.00 0.00 0.00 91 1010.1
20260505072712 51 293 0.0 0.0 0.00 0.00 0.00 90 1009.7
20260505072202 52 293 0.0 0.0 0.00 0.00 0.00 89 1009.4
20260505071652 51 293 0.0 0.0 0.00 0.00 0.00 91 1009.5
20260505070632 53 293 0.0 9.6 0.00 0.00 0.00 87 1008.9
20260505070121 54 293 1.7 11.3 0.00 0.00 0.00 85 1009.0
20260505065612 57 293 5.2 11.3 0.00 0.00 0.00 84 1008.9
20260505065102 55 293 8.7 11.3 0.00 0.00 0.00 89 1008.2
20260505064551 50 293 0.0 0.0 0.00 0.00 0.00 92 1008.9
20260505063531 49 293 0.0 0.0 0.00 0.00 0.00 94 1009.4
20260505063021 47 293 0.0 0.0 0.00 0.00 0.00 94 1009.5
20260505062513 46 293 0.0 0.0 0.00 0.00 0.00 93 1009.5
20260505062001 47 293 0.0 0.0 0.00 0.00 0.00 93 1009.6
20260505061451 47 293 0.0 0.0 0.00 0.00 0.00 93 1009.8
20260505060941 47 293 0.0 0.0 0.00 0.00 0.00 93 1009.7
20260505060430 47 293 0.0 0.0 0.00 0.00 0.00 93 1009.6
20260505055920 47 293 0.0 0.0 0.00 0.00 0.00 93 1010.0
20260505055410 48 293 0.0 0.0 0.00 0.00 0.00 93 1010.2
20260505054901 47 293 0.0 0.0 0.00 0.00 0.00 93 1010.2
20260505053330 48 293 0.0 0.0 0.00 0.00 0.00 92 1010.2
20260505052820 48 293 0.0 0.0 0.00 0.00 0.00 92 1009.8
20260505052309 49 293 0.0 0.0 0.00 0.00 0.00 92 1010.0
20260505051800 49 293 0.0 0.0 0.00 0.00 0.00 92 1009.8
20260505051249 48 293 0.0 0.0 0.00 0.00 0.00 92 1009.8
20260505050739 48 293 0.0 0.0 0.00 0.00 0.00 92 1010.1
20260505050229 49 293 0.0 0.0 0.00 0.00 0.00 91 1010.1
20260505041558 48 293 0.0 0.0 0.00 0.00 0.00 91 1010.2
20260505041049 48 293 0.0 0.0 0.00 0.00 0.00 90 1010.0
20260505040541 49 293 0.0 0.0 0.00 0.00 0.00 90 1010.0
20260505040038 48 293 0.0 0.0 0.00 0.00 0.00 93 1010.0
20260505035518 46 293 0.0 0.0 0.00 0.00 0.00 93 1010.0
20260505035008 46 293 0.0 0.0 0.00 0.00 0.00 93 1010.2
20260505034457 46 293 0.0 0.0 0.00 0.00 0.00 93 1010.2
20260505033948 45 293 0.0 0.0 0.00 0.00 0.00 93 1010.2
20260505033437 45 293 0.0 0.0 0.00 0.00 0.00 93 1010.3
20260505032417 46 293 0.0 0.0 0.00 0.00 0.00 92 1010.2
20260505031907 46 293 0.0 0.0 0.00 0.00 0.00 92 1010.3
20260505031357 46 293 0.0 0.0 0.00 0.00 0.00 92 1010.0
20260505030846 46 293 0.0 0.0 0.00 0.00 0.00 91 1010.1
20260505030337 47 293 0.0 0.0 0.00 0.00 0.00 91 1010.2
20260505025826 47 293 0.0 1.7 0.00 0.00 0.00 90 1010.1
20260505025316 48 293 0.0 1.7 0.00 0.00 0.00 91 1010.2
20260505024806 47 293 0.0 0.0 0.00 0.00 0.00 90 1010.1
20260505024258 48 293 0.0 0.0 0.00 0.00 0.00 92 1010.0
20260505023746 47 293 0.0 0.0 0.00 0.00 0.00 91 1010.0
20260505023236 47 293 0.0 0.0 0.00 0.00 0.00 92 1009.8
20260505022726 46 293 0.0 0.0 0.00 0.00 0.00 90 1009.8
20260505021706 47 293 0.0 0.0 0.00 0.00 0.00 91 1010.4
20260505021212 46 293 0.0 0.0 0.00 0.00 0.00 91 1010.1
20260505020135 47 293 0.0 0.0 0.00 0.00 0.00 90 1010.2
20260505015625 48 293 0.0 0.0 0.00 0.00 0.00 90 1010.1